World > North America > United States > Oregon

Biggs Junction, Oregon Regional Weather

Lat: 45.67N, Lon: 120.83W
Wx Zone: ORZ041Web Search

Our weather pages are very print friendly and they make great conversation starters.

Feedback


°F Click to change Biggs Junction hourly weather to Imperial units.Click to change Biggs Junction hourly weather to Metric units. °C
Biggs Junction Weather Map
UTC Time: 5/9/2021, 08:07
Your Time:

Biggs Junction, OR Regional Weather

Expires:202105090800;;825790
ASUS46 KPQR 090710
RWROR 

OREGON REGIONAL WEATHER ROUNDUP
NATIONAL WEATHER SERVICE PORTLAND OR
1200 AM PDT SUN MAY 09 2021

NOTE: "FAIR" INDICATES FEW OR NO CLOUDS BELOW 12,000 FEET WITH
NO SIGNIFICANT WEATHER AND/OR OBSTRUCTIONS TO VISIBILITY.


ORZ029>031-041-044-049-050-061>064-502-503-505>511-090800-
EASTERN OREGON

  
CITY           SKY/WX    TMP DP  RH WIND       PRES   REMARKS
MADRAS         CLOUDY    43  34  70 NW9       30.28                   
REDMOND        CLEAR     42  32  67 N6        30.25F                  
BEND           CLEAR     41  32  70 CALM      30.27S                  
PRINEVILLE     CLEAR     43  34  70 N9        30.26S                  
KLAMATH FALLS  CLEAR     43  32  65 NW7       30.21F                  
LAKEVIEW       CLEAR     41  30  65 N9        30.21S                  
HERMISTON      PTCLDY    50  36  58 SW9       30.23S                  
PENDLETON      PTCLDY    48  35  60 W16       30.21F                  
JOHN DAY       PTCLDY    42  31  65 N3        30.22S                  
MEACHAM        NOT AVBL                                               
LA GRANDE      MOCLDY    41  26  55 W10       30.22F                  
BAKER CITY     CLEAR     36  23  59 W5        30.21R                  
BURNS          PTCLDY    36  23  59 CALM      30.20S                  
ROME             N/A     48  23  37 N8        30.16S                  
ONTARIO        CLEAR     52  21  29 N17       30.17S                  
$$


OTHER REGIONAL REPORTS
  
CITY           SKY/WX    TMP DP  RH WIND       PRES   REMARKS
SEATTLE        CLOUDY    51  44  77 SW5       30.31F                  
SPOKANE        MOCLDY    48  26  42 SW13      30.13S                  
VANCOUVER BC   MOCLDY    50  41  71 E3        30.31F                  
PRINCE GEORGE  CLOUDY    37  30  75 S3        30.12R                  
DAWSON CREEK   CLEAR     41  25  52 SW6       30.08S                  
WHITEHORSE     CLOUDY    41  30  65 S10       29.96S                  
BOISE          CLEAR     44  19  36 SE3       30.14S                  
REDDING        CLEAR     67  35  30 NE8       30.06R                  
SAN FRANCISCO  CLEAR     58  43  57 W21       29.98R                  

$$

  

SKY/WX - Weather  TMP - Temperature  DP - Dew Point  RH - Relative Humidity
WIND - Wind Direction/Speed PRES - Barometric Pressure VSB - Visibility
WCI - Wind Chill Index E13G22 Wind - East Wind 13 mph/Gusts of 22 mph